This is the latest recevied weather packets stored in our database for station/object KD4UFD. If no packets are shown the sender has not sent any weather packets the latest 1 day(s).
| Time | Temp. | Humidity | Pressure | Rain* | Wind** | Luminosity | Snow |
|---|---|---|---|---|---|---|---|
| 1778026337 | 22.78° C | 46% | 1010.5 hPa | 0 mm | 1.34 m/s, 293° | 7 W/m² | - |
| 1778026034 | 22.22° C | 48% | 1010.6 hPa | 0 mm | 0.45 m/s, 261° | 8 W/m² | - |
| 1778025732 | 22.78° C | 48% | 1010.6 hPa | 0 mm | 0.45 m/s, 179° | 12 W/m² | - |
| 1778025429 | 22.78° C | 49% | 1010.6 hPa | 0 mm | 0.45 m/s, 281° | 17 W/m² | - |
| 1778025126 | 22.78° C | 50% | 1010.6 hPa | 0 mm | 0.45 m/s, 205° | 23 W/m² | - |
| 1778024823 | 22.78° C | 49% | 1010.6 hPa | 0 mm | 0.45 m/s, 218° | 30 W/m² | - |
| 1778024520 | 23.33° C | 50% | 1010.4 hPa | 0 mm | 0.45 m/s, 219° | 30 W/m² | - |
| 1778024216 | 23.33° C | 50% | 1010.2 hPa | 0 mm | 0.45 m/s, 175° | 34 W/m² | - |
| 1778023914 | 23.33° C | 48% | 1010 hPa | 0 mm | 1.34 m/s, 211° | 47 W/m² | - |
| 1778023612 | 23.89° C | 49% | 1010 hPa | 0 mm | 0.89 m/s, 226° | 69 W/m² | - |
| 1778023309 | 23.89° C | 49% | 1010.3 hPa | 0 mm | 1.79 m/s, 238° | 120 W/m² | - |
| 1778023006 | 23.89° C | 48% | 1010 hPa | 0 mm | 2.24 m/s, 227° | 125 W/m² | - |
| 1778022705 | 23.33° C | 50% | 1010.3 hPa | 0 mm | 1.34 m/s, 205° | 126 W/m² | - |
| 1778022403 | 23.33° C | 51% | 1009.9 hPa | 0 mm | 0.45 m/s, 274° | 75 W/m² | - |
| 1778022099 | 23.89° C | 50% | 1010 hPa | 0 mm | 2.68 m/s, 207° | 84 W/m² | - |
| 1778021795 | 23.89° C | 51% | 1010.3 hPa | 0 mm | 1.34 m/s, 235° | 94 W/m² | - |
| 1778021491 | 23.89° C | 52% | 1010.3 hPa | 0 mm | 0.45 m/s, 235° | 115 W/m² | - |
| 1778021188 | 23.89° C | 51% | 1010.3 hPa | 0 mm | 1.34 m/s, 233° | 128 W/m² | - |
| 1778020885 | 24.44° C | 51% | 1010.3 hPa | 0 mm | 1.34 m/s, 198° | 157 W/m² | - |
| 1778020583 | 24.44° C | 51% | 1010.4 hPa | 0 mm | 1.34 m/s, 237° | 216 W/m² | - |
| 1778020279 | 23.89° C | 53% | 1010.4 hPa | 0 mm | 0.45 m/s, 218° | 246 W/m² | - |
| 1778019975 | 23.89° C | 51% | 1010.6 hPa | 0 mm | 1.34 m/s, 227° | 147 W/m² | - |
| 1778019671 | 23.89° C | 51% | 1010.5 hPa | 0 mm | 0 m/s | 139 W/m² | - |
| 1778019369 | 23.89° C | 51% | 1010.7 hPa | 0 mm | 2.24 m/s, 234° | 133 W/m² | - |
| 1778019065 | 23.89° C | 50% | 1010.7 hPa | 0 mm | 1.79 m/s, 211° | 169 W/m² | - |
* Rain latest hour (hover to see other rain measurements)
** Current wind speed in m/s (hover to see current wind gust speed)